H1 CPF 2 NER 2023 1 14 9 014 01 glonass116 H2 0907001 9116 36111 2023 1 14 0 0 0 2023 1 17 23 45 0 900 1 1 0 0 0 1 H9 10 0 59958 0.00000 0 -24214306.655 -3681233.398 -7140832.534 10 0 59958 900.00000 0 -23147452.406 -3577652.925 -10112117.377 10 0 59958 1800.00000 0 -21723724.780 -3583596.883 -12887053.321 10 0 59958 2700.00000 0 -19981986.502 -3743331.108 -15411759.253 10 0 59958 3600.00000 0 -17971200.368 -4093020.656 -17637212.543 10 0 59958 4500.00000 0 -15748507.412 -4658980.725 -19520199.751 10 0 59958 5400.00000 0 -13376979.658 -5456350.556 -21024154.231 10 0 59958 6300.00000 0 -10923140.874 -6488246.946 -22119864.671 10 0 59958 7200.00000 0 -8454358.357 -7745433.818 -22786041.144 10 0 59958 8100.00000 0 -6036213.856 -9206522.705 -23009728.059 10 0 59958 9000.00000 0 -3729962.388 -10838696.859 -22786556.250 10 0 59958 9900.00000 0 -1590184.118 -12598929.695 -22120829.420 10 0 59958 10800.00000 0 337273.864 -14435647.732 -21025443.188 10 0 59958 11700.00000 0 2016980.995 -16290769.491 -19521638.077 10 0 59958 12600.00000 0 3425162.601 -18102035.929 -17638590.819 10 0 59958 13500.00000 0 4550444.418 -19805535.642 -15412851.414 10 0 59958 14400.00000 0 5394072.101 -21338319.612 -12887636.306 10 0 59958 15300.00000 0 5969597.424 -22640996.159 -10111990.978 10 0 59958 16200.00000 0 6302045.379 -23660197.309 -7139837.865 10 0 59958 17100.00000 0 6426598.154 -24350812.870 -4028927.884 10 0 59958 18000.00000 0 6386852.408 -24677897.961 -839716.127 10 0 59958 18900.00000 0 6232724.378 -24618173.399 2365816.205 10 0 59958 19800.00000 0 6018092.340 -24161055.319 5525370.275 10 0 59958 20700.00000 0 5798277.033 -23309170.368 8577544.345 10 0 59958 21600.00000 0 5627467.593 -22078334.347 11463030.611 10 0 59958 22500.00000 0 5556202.726 -20496995.038 14125770.362 10 0 59958 23400.00000 0 5629014.417 -18605162.250 16514044.493 10 0 59958 24300.00000 0 5882334.472 -16452869.936 18581478.087 10 0 59958 25200.00000 0 6342752.867 -14098234.822 20287939.638 10 0 59958 26100.00000 0 7025701.884 -11605192.485 21600317.606 10 0 59958 27000.00000 0 7934621.932 -9041005.262 22493159.722 10 0 59958 27900.00000 0 9060644.651 -6473645.541 22949163.153 10 0 59958 28800.00000 0 10382807.137 -3969162.945 22959506.539 10 0 59958 29700.00000 0 11868788.859 -1589144.297 22524018.004 10 0 59958 30600.00000 0 13476141.051 611628.908 21651176.190 10 0 59958 31500.00000 0 15153957.713 2587229.002 20357944.530 10 0 59958 32400.00000 0 16844918.959 4302252.611 18669441.931 10 0 59958 33300.00000 0 18487621.855 5733044.746 16618456.087 10 0 59958 34200.00000 0 20019101.660 6868426.740 14244808.548 10 0 59958 35100.00000 0 21377438.385 7709898.933 11594583.497 10 0 59958 36000.00000 0 22504339.675 8271310.923 8719234.785 10 0 59958 36900.00000 0 23347591.866 8578014.342 5674588.304 10 0 59958 37800.00000 0 23863276.263 8665534.922 2519758.865 10 0 59958 38700.00000 0 24017657.445 8577820.716 -683997.477 10 0 59958 39600.00000 0 23788663.896 8365141.203 -3874473.163 10 0 59958 40500.00000 0 23166898.394 8081726.748 -6989717.667 10 0 59958 41400.00000 0 22156135.210 7783248.784 -9969241.110 10 0 59958 42300.00000 0 20773282.764 7524247.817 -12755189.217 10 0 59958 43200.00000 0 19047812.792 7355618.427 -15293466.646 10 0 59958 44100.00000 0 17020679.414 7322258.025 -17534786.799 10 0 59958 45000.00000 0 14742772.879 7460979.039 -19435627.717 10 0 59958 45900.00000 0 12272972.061 7798773.090 -20959075.714 10 0 59958 46800.00000 0 9675876.433 8351500.769 -22075540.707 10 0 59958 47700.00000 0 7019311.510 9123062.773 -22763329.631 10 0 59958 48600.00000 0 4371710.954 10105087.876 -23009067.217 10 0 59958 49500.00000 0 1799483.503 11277151.665 -22807956.189 10 0 59958 50400.00000 0 -635526.489 12607517.654 -22163871.969 10 0 59958 51300.00000 0 -2878380.154 14054370.641 -21089290.005 10 0 59958 52200.00000 0 -4883090.397 15567491.489 -19605046.859 10 0 59958 53100.00000 0 -6614288.969 17090303.942 -17739939.346 10 0 59958 54000.00000 0 -8048445.824 18562208.360 -15530168.974 10 0 59958 54900.00000 0 -9174590.780 19921104.989 -13018641.913 10 0 59958 55800.00000 0 -9994508.205 21106001.111 -10254137.660 10 0 59958 56700.00000 0 -10522397.548 22059592.587 -7290362.163 10 0 59958 57600.00000 0 -10784014.987 22730711.067 -4184903.607 10 0 59958 58500.00000 0 -10815333.242 23076533.507 -998111.292 10 0 59958 59400.00000 0 -10660777.081 23064460.387 2208080.343 10 0 59958 60300.00000 0 -10371110.030 22673582.995 5371359.310 10 0 59958 61200.00000 0 -10001062.545 21895677.339 8430251.094 10 0 59958 62100.00000 0 -9606802.811 20735682.216 11325316.944 10 0 59958 63000.00000 0 -9243358.028 19211640.801 14000311.626 10 0 59958 63900.00000 0 -8962095.869 17354107.688 16403277.622 10 0 59958 64800.00000 0 -8808373.234 15205045.978 18487554.403 10 0 59958 65700.00000 0 -8819452.019 12816260.199 20212683.234 10 0 59958 66600.00000 0 -9022770.191 10247430.377 21545190.101 10 0 59958 67500.00000 0 -9434641.260 7563828.966 22459232.064 10 0 59958 68400.00000 0 -10059437.136 4833815.241 22937094.977 10 0 59958 69300.00000 0 -10889288.940 2126211.063 22969533.466 10 0 59958 70200.00000 0 -11904318.590 -492333.594 22555947.100 10 0 59958 71100.00000 0 -13073391.786 -2959876.723 21704389.692 10 0 59958 72000.00000 0 -14355361.181 -5221517.450 20431411.737 10 0 59958 72900.00000 0 -15700748.048 -7231430.452 18761739.074 10 0 59958 73800.00000 0 -17053792.416 -8954518.168 16727793.777 10 0 59958 74700.00000 0 -18354786.114 -10367613.151 14369066.340 10 0 59958 75600.00000 0 -19542591.191 -11460181.703 11731350.897 10 0 59958 76500.00000 0 -20557238.272 -12234500.630 8865857.927 10 0 59958 77400.00000 0 -21342495.764 -12705300.857 5828221.424 10 0 59958 78300.00000 0 -21848301.874 -12898894.013 2677419.550 10 0 59958 79200.00000 0 -22032956.931 -12851819.760 -525370.322 10 0 59958 80100.00000 0 -21864983.384 -12609071.689 -3717959.784 10 0 59958 81000.00000 0 -21324574.735 -12221977.463 -6838357.547 10 0 59958 81900.00000 0 -20404571.822 -11745823.346 -9825973.839 10 0 59958 82800.00000 0 -19110924.768 -11237324.026 -12622797.328 10 0 59958 83700.00000 0 -17462620.455 -10752045.074 -15174521.519 10 0 59958 84600.00000 0 -15491077.806 -10341887.272 -17431598.701 10 0 59958 85500.00000 0 -13239035.504 -10052739.298 -19350200.909 10 0 59959 0.00000 0 -10758978.076 -9922398.032 -20893069.405 10 0 59959 900.00000 0 -8111163.919 -9978844.337 -22030237.211 10 0 59959 1800.00000 0 -5361340.095 -10238947.303 -22739609.011 10 0 59959 2700.00000 0 -2578233.755 -10707651.573 -23007390.311 10 0 59959 3600.00000 0 169073.048 -11377682.495 -22828355.623 10 0 59959 4500.00000 0 2813778.130 -12229781.937 -22205951.474 10 0 59959 5400.00000 0 5293894.723 -13233465.398 -21152232.064 10 0 59959 6300.00000 0 7554583.316 -14348269.345 -19687628.545 10 0 59959 7200.00000 0 9550183.556 -15525436.948 -17840556.031 10 0 59959 8100.00000 0 11245862.502 -16709972.046 -15646865.465 10 0 59959 9000.00000 0 12618811.370 -17842975.431 -13149150.416 10 0 59959 9900.00000 0 13658941.534 -18864165.491 -10395921.838 10 0 59959 10800.00000 0 14369051.588 -19714477.172 -7440666.439 10 0 59959 11700.00000 0 14764459.373 -20338629.651 -4340806.759 10 0 59959 12600.00000 0 14872115.270 -20687554.068 -1156583.307 10 0 59959 13500.00000 0 14729235.158 -20720578.473 2050119.304 10 0 59959 14400.00000 0 14381511.611 -20407277.120 5216978.957 10 0 59959 15300.00000 0 13880979.760 -19728905.344 8282451.259 10 0 59959 16200.00000 0 13283628.987 -18679358.890 11186969.239 10 0 59959 17100.00000 0 12646862.081 -17265616.419 13874103.629 10 0 59959 18000.00000 0 12026909.981 -15507645.862 16291660.689 10 0 59959 18900.00000 0 11476311.885 -13437778.059 18392696.141 10 0 59959 19800.00000 0 11041567.466 -11099573.244 20136425.521 10 0 59959 20700.00000 0 10761060.427 -8546227.402 21489013.477 10 0 59959 21600.00000 0 10663340.950 -5838584.412 22424227.131 10 0 59959 22500.00000 0 10765839.306 -3042836.273 22923941.362 10 0 59959 23400.00000 0 11074064.638 -228006.602 22978486.739 10 0 59959 24300.00000 0 11581322.515 2536678.741 22586833.869 10 0 59959 25200.00000 0 12268963.057 5184425.465 21756610.984 10 0 59959 26100.00000 0 13107149.264 7653400.573 20503954.591 10 0 59959 27000.00000 0 14056113.394 9889053.916 18853196.128 10 0 59959 27900.00000 0 15067848.840 11846136.185 16836390.498 10 0 59959 28800.00000 0 16088166.657 13490330.381 14492695.362 10 0 59959 29700.00000 0 17059030.554 14799429.955 11867612.829 10 0 59959 30600.00000 0 17921072.305 15764015.573 9012107.864 10 0 59959 31500.00000 0 18616181.824 16387603.240 5981620.251 10 0 59959 32400.00000 0 19090062.761 16686258.672 2834989.074 10 0 59959 33300.00000 0 19294645.752 16687695.113 -366689.497 10 0 59959 34200.00000 0 19190257.252 16429893.388 -3561248.756 10 0 59959 35100.00000 0 18747452.032 15959303.180 -6686659.160 10 0 59959 36000.00000 0 17948431.479 15328702.032 -9682233.454 10 0 59959 36900.00000 0 16787987.221 14594802.984 -12489805.487 10 0 59959 37800.00000 0 15273929.559 13815712.248 -15054859.656 10 0 59959 38700.00000 0 13426981.748 13048344.516 -17327588.943 10 0 59959 39600.00000 0 11280143.647 12345905.139 -19263860.993 10 0 59959 40500.00000 0 8877550.382 11755545.422 -20826073.665 10 0 59959 41400.00000 0 6272872.670 11316289.820 -21983883.766 10 0 59959 42300.00000 0 3527324.617 11057322.311 -22714795.107 10 0 59959 43200.00000 0 707360.938 10996703.996 -23004594.849 10 0 59959 44100.00000 0 -2117841.632 11140575.898 -22847629.929 10 0 59959 45000.00000 0 -4879014.881 11482880.554 -22246918.336 10 0 59959 45900.00000 0 -7509433.336 12005614.297 -21214093.024 10 0 59959 46800.00000 0 -9947443.532 12679599.906 -19769179.348 10 0 59959 47700.00000 0 -12138783.997 13465747.479 -17940209.933 10 0 59959 48600.00000 0 -14038600.171 14316750.832 -15762683.989 10 0 59959 49500.00000 0 -15613071.096 15179148.339 -13278880.976 10 0 59959 50400.00000 0 -16840580.593 15995661.608 -10537041.516 10 0 59959 51300.00000 0 -17712384.748 16707713.422 -7590431.075 10 0 59959 52200.00000 0 -18232748.443 17258018.609 -4496304.382 10 0 59959 53100.00000 0 -18418545.969 17593138.076 -1314790.849 10 0 59959 54000.00000 0 -18298343.369 17665887.650 1892277.140 10 0 59959 54900.00000 0 -17911001.972 17437499.223 5062569.818 10 0 59959 55800.00000 0 -17303863.007 16879442.239 8134475.493 10 0 59959 56700.00000 0 -16530590.679 15974827.746 11048301.604 10 0 59959 57600.00000 0 -15648765.521 14719334.843 13747437.506 10 0 59959 58500.00000 0 -14717330.444 13121619.803 16179455.911 10 0 59959 59400.00000 0 -13793997.679 11203189.716 18297131.400 10 0 59959 60300.00000 0 -12932726.398 8997745.210 20059356.250 10 0 59959 61200.00000 0 -12181377.466 6550019.200 21431936.035 10 0 59959 62100.00000 0 -11579643.975 3914159.327 22388249.935 10 0 59959 63000.00000 0 -11157344.371 1151720.858 22909763.517 10 0 59959 63900.00000 0 -10933149.628 -1670647.014 22986384.546 10 0 59959 64800.00000 0 -10913797.504 -4483726.082 22616655.492 10 0 59959 65700.00000 0 -11093826.461 -7218361.159 21807779.341 10 0 59959 66600.00000 0 -11455840.099 -9808090.743 20575478.450 10 0 59959 67500.00000 0 -11971290.681 -12191668.006 18943689.187 10 0 59959 68400.00000 0 -12601748.689 -14315368.303 16944098.116 10 0 59959 69300.00000 0 -13300604.964 -16134988.164 14615528.439 10 0 59959 70200.00000 0 -14015133.792 -17617453.498 12003188.216 10 0 59959 71100.00000 0 -14688830.103 -18741970.918 9157794.532 10 0 59959 72000.00000 0 -15263922.265 -19500674.954 6134590.333 10 0 59959 72900.00000 0 -15683954.420 -19898745.006 2992272.794 10 0 59959 73800.00000 0 -15896329.202 -19953987.987 -208146.083 10 0 59959 74700.00000 0 -15854703.169 -19695904.974 -3404524.358 10 0 59959 75600.00000 0 -15521133.351 -19164281.887 -6534797.352 10 0 59959 76500.00000 0 -14867883.693 -18407364.182 -9538183.473 10 0 59959 77400.00000 0 -13878814.464 -17479693.003 -12356364.883 10 0 59959 78300.00000 0 -12550295.202 -16439694.447 -14934619.915 10 0 59959 79200.00000 0 -10891601.790 -15347123.828 -17222885.153 10 0 59959 80100.00000 0 -8924779.940 -14260472.771 -19176726.494 10 0 59959 81000.00000 0 -6683979.676 -13234448.350 -20758200.581 10 0 59959 81900.00000 0 -4214287.454 -12317630.240 -21936590.157 10 0 59959 82800.00000 0 -1570103.587 -11550404.212 -22688999.375 10 0 59959 83700.00000 0 1186868.598 -10963258.566 -23000797.891 10 0 59959 84600.00000 0 3989939.302 -10575514.784 -22865905.393 10 0 59959 85500.00000 0 6769959.177 -10394545.469 -22286911.149 10 0 59960 0.00000 0 9457952.405 -10415512.229 -21275026.360 10 0 59960 900.00000 0 11987748.857 -10621634.415 -19849869.371 10 0 59960 1800.00000 0 14298503.066 -10984977.349 -18039088.998 10 0 59960 2700.00000 0 16337000.764 -11467726.906 -15877830.958 10 0 59960 3600.00000 0 18059653.885 -12023896.829 -13408058.489 10 0 59960 4500.00000 0 19434102.782 -12601396.816 -10677739.416 10 0 59960 5400.00000 0 20440359.015 -13144374.021 -7739915.158 10 0 59960 6300.00000 0 21071441.419 -13595728.876 -4651669.537 10 0 59960 7200.00000 0 21333479.280 -13899698.580 -1473017.548 10 0 59960 8100.00000 0 21245278.975 -14004398.444 1734264.089 10 0 59960 9000.00000 0 20837372.961 -13864212.959 4907841.438 10 0 59960 9900.00000 0 20150591.964 -13441934.710 7986038.863 10 0 59960 10800.00000 0 19234221.283 -12710559.831 10909041.350 10 0 59960 11700.00000 0 18143819.712 -11654663.302 13620059.744 10 0 59960 12600.00000 0 16938793.637 -10271295.088 16066435.698 10 0 59960 13500.00000 0 15679829.094 -8570358.464 18200664.725 10 0 59960 14400.00000 0 14426290.416 -6574453.805 19981317.531 10 0 59960 15300.00000 0 13233694.953 -4318193.446 21373841.856 10 0 59960 16200.00000 0 12151370.049 -1847015.492 22351229.747 10 0 59960 17100.00000 0 11220390.318 784454.784 22894537.835 10 0 59960 18000.00000 0 10471881.365 3514428.461 22993251.039 10 0 59960 18900.00000 0 9925760.467 6276278.017 22645483.215 10 0 59960 19800.00000 0 9589966.347 9001068.156 21858011.226 10 0 59960 20700.00000 0 9460209.651 11620188.014 20646142.016 10 0 59960 21600.00000 0 9520253.938 14067976.325 19033415.273 10 0 59960 22500.00000 0 9742714.802 16284231.323 17051147.308 10 0 59960 23400.00000 0 10090343.121 18216501.742 14737824.681 10 0 59960 24300.00000 0 10517738.066 19822064.417 12138358.999 10 0 59960 25200.00000 0 10973417.497 21069506.751 9303216.869 10 0 59960 26100.00000 0 11402158.227 21939848.701 6287441.666 10 0 59960 27000.00000 0 11747507.187 22427158.041 3149585.829 10 0 59960 27900.00000 0 11954357.180 22538633.825 -49425.667 10 0 59960 28800.00000 0 11971478.039 22294155.126 -3247478.466 10 0 59960 29700.00000 0 11753895.799 21725314.653 -6382475.454 10 0 59960 30600.00000 0 11265018.719 20873978.416 -9393543.205 10 0 59960 31500.00000 0 10478419.716 19790432.488 -12222214.454 10 0 59960 32400.00000 0 9379199.133 18531195.294 -14813563.444 10 0 59960 33300.00000 0 7964869.426 17156587.686 -17117272.036 10 0 59960 34200.00000 0 6245723.513 15728163.220 -19088605.780 10 0 59960 35100.00000 0 4244670.110 14306106.617 -20689281.250 10 0 59960 36000.00000 0 1996541.675 12946709.573 -21888208.035 10 0 59960 36900.00000 0 -453097.328 11700029.598 -22662091.325 10 0 59960 37800.00000 0 -3049593.397 10607829.738 -22995883.731 10 0 59960 38700.00000 0 -5731231.043 9701885.084 -22883077.877 10 0 59960 39600.00000 0 -8431560.610 9002726.621 -22325834.187 10 0 59960 40500.00000 0 -11081931.197 8518874.576 -21334941.403 10 0 59960 41400.00000 0 -13614124.333 8246592.962 -19929610.354 10 0 59960 42300.00000 0 -15962979.611 8170175.252 -18137104.640 10 0 59960 43200.00000 0 -18068903.727 8262748.804 -15992214.885 10 0 59960 44100.00000 0 -19880158.962 8487563.899 -13536586.222 10 0 59960 45000.00000 0 -21354835.965 8799712.826 -10817911.597 10 0 59960 45900.00000 0 -22462428.830 9148206.157 -7889006.167 10 0 59960 46800.00000 0 -23184946.820 9478318.183 -4806780.567 10 0 59960 47700.00000 0 -23517516.461 9734101.893 -1631133.055 10 0 59960 48600.00000 0 -23468449.043 9860966.501 1576217.646 10 0 59960 49500.00000 0 -23058771.246 9808207.742 4752935.775 10 0 59960 50400.00000 0 -22321239.116 9531383.097 7837284.143 10 0 59960 51300.00000 0 -21298877.504 8994430.534 10769327.709 10 0 59960 52200.00000 0 -20043107.105 8171440.308 13492101.224 10 0 59960 53100.00000 0 -18611538.497 7048004.024 15952717.655 10 0 59960 54000.00000 0 -17065526.609 5622083.153 18103395.741 10 0 59960 54900.00000 0 -15467588.782 3904359.480 19902386.705 10 0 59960 55800.00000 0 -13878795.137 1918051.910 21314782.308 10 0 59960 56700.00000 0 -12356240.686 -301793.640 22313189.016 10 0 59960 57600.00000 0 -10950704.813 -2709512.533 22878255.705 10 0 59960 58500.00000 0 -9704595.744 -5250478.315 22999045.227 10 0 59960 59400.00000 0 -8650265.300 -7863140.067 22673243.185 10 0 59960 60300.00000 0 -7808763.628 -10481356.384 21907200.258 10 0 59960 61200.00000 0 -7189085.127 -13036929.669 20715807.486 10 0 59960 62100.00000 0 -6787936.176 -15462236.263 19122206.987 10 0 59960 63000.00000 0 -6590033.492 -17692843.881 17157343.522 10 0 59960 63900.00000 0 -6568919.794 -19670008.078 14859365.375 10 0 59960 64800.00000 0 -6688261.773 -21342944.504 12272885.738 10 0 59960 65700.00000 0 -6903575.164 -22670782.804 9448118.541 10 0 59960 66600.00000 0 -7164303.738 -23624121.049 6439905.194 10 0 59960 67500.00000 0 -7416164.071 -24186116.209 3306650.874 10 0 59960 68400.00000 0 -7603656.656 -24353065.428 109190.910 10 0 59960 69300.00000 0 -7672636.812 -24134454.108 -3090390.598 10 0 59960 70200.00000 0 -7572836.204 -23552469.173 -6229966.819 10 0 59960 71100.00000 0 -7260227.785 -22640998.332 -9248575.242 10 0 59960 72000.00000 0 -6699133.559 -21444157.693 -12087601.920 10 0 59960 72900.00000 0 -5863985.364 -20014409.908 -14691919.726 10 0 59960 73800.00000 0 -4740663.470 -18410352.108 -17010958.409 10 0 59960 74700.00000 0 -3327355.638 -16694266.630 -18999685.614 10 0 59960 75600.00000 0 -1634899.340 -14929537.323 -20619480.006 10 0 59960 76500.00000 0 313408.441 -13178039.543 -21838879.846 10 0 59960 77400.00000 0 2482527.143 -11497612.984 -22634192.765 10 0 59960 78300.00000 0 4826885.701 -9939722.636 -22989955.299 10 0 59960 79200.00000 0 7292043.496 -8547405.239 -22899233.525 10 0 59960 80100.00000 0 9816731.136 -7353586.521 -22363759.112 10 0 59960 81000.00000 0 12335187.281 -6379838.964 -21393898.134 10 0 59960 81900.00000 0 14779695.302 -5635631.373 -20008453.031 10 0 59960 82800.00000 0 17083214.924 -5118101.070 -18234301.196 10 0 59960 83700.00000 0 19181999.988 -4812357.601 -16105876.722 10 0 59960 84600.00000 0 21018093.679 -4692304.582 -13664504.800 10 0 59960 85500.00000 0 22541597.354 -4721944.556 -10957601.257 10 0 59961 0.00000 0 23712618.274 -4857111.281 -8037752.629 10 0 59961 900.00000 0 24502815.421 -5047555.837 -4961692.830 10 0 59961 1800.00000 0 24896477.086 -5239297.612 -1789200.376 10 0 59961 2700.00000 0 24891087.319 -5377140.241 1418067.480 10 0 59961 3600.00000 0 24497355.914 -5407245.125 4597776.685 10 0 59961 4500.00000 0 23738711.559 -5279652.787 7688131.941 10 0 59961 5400.00000 0 22650279.886 -4950644.504 10629081.457 10 0 59961 6300.00000 0 21277389.647 -4384843.349 13363486.886 10 0 59961 7200.00000 0 19673670.287 -3556964.927 15838235.171 10 0 59961 8100.00000 0 17898821.449 -2453143.016 18005270.548 10 0 59961 9000.00000 0 16016148.269 -1071773.295 19822526.652 10 0 59961 9900.00000 0 14089966.139 576161.156 21254740.755 10 0 59961 10800.00000 0 12182983.587 2467297.188 22274134.813 10 0 59961 11700.00000 0 10353772.514 4566623.996 22860950.597 10 0 59961 12600.00000 0 8654431.146 6828710.844 23003829.103 10 0 59961 13500.00000 0 7128536.573 9199379.789 22700027.434 10 0 59961 14400.00000 0 5809471.495 11617754.601 21955469.372 10 0 59961 15300.00000 0 4719194.055 14018601.356 20784628.885 10 0 59961 16200.00000 0 3867501.007 16334864.121 19210248.899 10 0 59961 17100.00000 0 3251813.906 18500290.951 17262900.626 10 0 59961 18000.00000 0 2857496.184 20452041.447 14980391.706 10 0 59961 18900.00000 0 2658686.791 22133167.782 12407034.280 10 0 59961 19800.00000 0 2619614.462 23494866.177 9592786.724 10 0 59961 20700.00000 0 2696336.531 24498405.055 6592285.435 10 0 59961 21600.00000 0 2838828.313 25116649.541 3463785.182 10 0 59961 22500.00000 0 2993334.269 25335118.664 268028.471 10 0 59961 23400.00000 0 3104881.067 25152531.068 -2932933.985 10 0 59961 24300.00000 0 3119845.747 24580816.482 -6076948.635 10 0 59961 25200.00000 0 2988469.808 23644592.590 -9102966.663 10 0 59961 26100.00000 0 2667212.289 22380129.367 -11952229.934 10 0 59961 27000.00000 0 2120841.710 20833844.466 -14569412.112 10 0 59961 27900.00000 0 1324177.736 19060392.828 -16903692.656 10 0 59961 28800.00000 0 263408.261 17120430.668 -18909742.776 10 0 59961 29700.00000 0 -1063074.574 15078147.420 -20548604.390 10 0 59961 30600.00000 0 -2644355.693 12998668.716 -21788445.280 10 0 59961 31500.00000 0 -4457210.257 10945438.785 -22605176.079 10 0 59961 32400.00000 0 -6466841.078 8977691.118 -22982917.498 10 0 59961 33300.00000 0 -8628110.745 7148112.465 -22914308.991 10 0 59961 34200.00000 0 -10887218.247 5500797.061 -22400653.023 10 0 59961 35100.00000 0 -13183751.366 4069575.678 -21451892.150 10 0 59961 36000.00000 0 -15453030.389 2876788.506 -20086419.149 10 0 59961 36900.00000 0 -17628646.238 1932552.326 -18330723.531 10 0 59961 37800.00000 0 -19645087.940 1234551.835 -16218880.824 10 0 59961 38700.00000 0 -21440350.279 768362.984 -13791893.967 10 0 59961 39600.00000 0 -22958412.905 508294.003 -11096899.155 10 0 59961 40500.00000 0 -24151487.337 418707.935 -8186251.143 10 0 59961 41400.00000 0 -24981937.730 455770.096 -5116505.534 10 0 59961 42300.00000 0 -25423794.656 569545.989 -1947317.916 10 0 59961 43200.00000 0 -25463798.275 706360.113 1259718.553 10 0 59961 44100.00000 0 -25101926.851 811315.053 4442274.109 10 0 59961 45000.00000 0 -24351388.473 830863.335 7538497.897 10 0 59961 45900.00000 0 -23238076.357 715322.296 10488223.855 10 0 59961 46800.00000 0 -21799510.697 421224.614 13234142.907 10 0 59961 47700.00000 0 -20083311.953 -86595.721 15722918.229 10 0 59961 48600.00000 0 -18145269.707 -833271.028 17906221.610 10 0 59961 49500.00000 0 -16047088.436 -1832595.053 19741670.845 10 0 59961 50400.00000 0 -13853904.918 -3086201.257 21193650.132 10 0 59961 51300.00000 0 -11631680.914 -4583259.647 22233997.934 10 0 59961 52200.00000 0 -9444579.867 -6300705.716 22842549.514 10 0 59961 53100.00000 0 -7352436.725 -8203992.637 23007524.176 10 0 59961 54000.00000 0 -5408425.686 -10248336.153 22725750.275 10 0 59961 54900.00000 0 -3657022.178 -12380401.018 22002724.049 10 0 59961 55800.00000 0 -2132343.033 -14540359.410 20852501.386 10 0 59961 56700.00000 0 -856932.840 -16664236.304 19297424.693 10 0 59961 57600.00000 0 158954.126 -18686444.760 17367689.984 10 0 59961 58500.00000 0 917547.590 -20542405.966 15100762.351 10 0 59961 59400.00000 0 1433223.729 -22171145.229 12540650.731 10 0 59961 60300.00000 0 1731651.691 -23517755.882 9737055.606 10 0 59961 61200.00000 0 1848461.016 -24535628.276 6744405.888 10 0 59961 62100.00000 0 1827486.988 -25188350.706 3620803.374 10 0 59961 63000.00000 0 1718668.673 -25451202.627 426895.150 10 0 59961 63900.00000 0 1575689.086 -25312177.442 -2775304.040 10 0 59961 64800.00000 0 1453457.836 -24772491.844 -5923616.481 10 0 59961 65700.00000 0 1405543.312 -23846560.172 -8956909.552 10 0 59961 66600.00000 0 1481663.565 -22561434.709 -11816283.376 10 0 59961 67500.00000 0 1725342.609 -20955735.279 -14446214.761 10 0 59961 68400.00000 0 2171831.804 -19078112.842 -16795635.093 10 0 59961 69300.00000 0 2846384.780 -16985311.324 -18818921.175 10 0 59961 70200.00000 0 3762959.427 -14739908.596 -20476779.942 10 0 59961 71100.00000 0 4923402.505 -12407830.698 -21737010.140 10 0 59961 72000.00000 0 6317152.111 -10055742.796 -22575126.477 10 0 59961 72900.00000 0 7921471.616 -7748425.233 -22974834.506 10 0 59961 73800.00000 0 9702206.444 -5546243.387 -22928347.328 10 0 59961 74700.00000 0 11615033.177 -3502816.179 -22436538.086 10 0 59961 75600.00000 0 13607149.965 -1662979.542 -21508925.344 10 0 59961 76500.00000 0 15619338.701 -61128.853 -20163491.403 10 0 59961 77400.00000 0 17588313.729 1279991.318 -18426336.755 10 0 59961 78300.00000 0 19449259.703 2350000.587 -16331176.898 10 0 59961 79200.00000 0 21138453.059 3151070.340 -13918690.712 10 0 59961 80100.00000 0 22595857.663 3697578.559 -11235732.609 10 0 59961 81000.00000 0 23767585.984 4015247.357 -8334423.337 10 0 59961 81900.00000 0 24608122.539 4139800.446 -5271136.846 10 0 59961 82800.00000 0 25082215.933 4115198.038 -2105403.008 10 0 59961 83700.00000 0 25166359.713 3991524.664 1101252.317 10 0 59961 84600.00000 0 24849799.393 3822620.137 4286506.912 10 0 59961 85500.00000 0 24135023.030 3663554.801 7388457.554 99